Weather History for Scottsdale, AZ

Change the Weather History Date:

Saturday, February 23, 2013

  Actual Average Record
Temperature  
Mean Temperature 50 °F -  
Max Temperature 61 °F 64 °F 82 °F (2009)
Min Temperature 39 °F 44 °F 19 °F (1997)
Degree Days  
Heating Degree Days 15    
Moisture  
Dew Point 29 °F    
Average Humidity 46    
Maximum Humidity 77    
Minimum Humidity 24    
Precipitation  
Precipitation 0.00 in - - ()
Sea Level Pressure  
Sea Level Pressure 29.96 in    
Wind  
Wind Speed 2 mph (South)    
Max Wind Speed 7 mph    
Max Gust Speed -    
Visibility 10 miles    
Events      
Averages and records for this station are not official NWS values.
T = Trace of Precipitation, MM = Missing Value Source: NWS Daily Summary

Daily Weather History Graph

Daily Weather History Graph

Search for Another Location

Airport:

Trip Planner

Search our weather history database for the weather conditions in past years. The results will help you decide how hot, cold, wet, or windy it might be!

Date:

Astronomy

Feb. 23, 2013 Rise Set
Actual Time 7:02 AM MST 6:19 PM MST
Civil Twilight 6:37 AM MST 6:44 PM MST
Nautical Twilight 6:08 AM MST 7:13 PM MST
Astronomical Twilight 5:39 AM MST 7:42 PM MST
Moon 4:36 PM MST (2/23) 5:23 AM MST (2/23)
Length of Visible Light 12h 07m
Length of Day
11h 16m
Waxing Gibbous, 95% of the Moon is Illuminated
Feb 23
Waxing Gibbous
Feb 25
Full
Mar 4
Last Quarter
Mar 11
New
Mar 19
First Quarter

Hourly Weather History & Observations

Time (MST) Temp. Dew Point Humidity Pressure Visibility Wind Dir Wind Speed Gust Speed Precip Events Conditions
12:53 AM 46.0 °F 30.0 °F 54% 30.12 in 10.0 mi Calm Calm - N/A   Clear
1:53 AM 44.1 °F 32.0 °F 63% 30.11 in 10.0 mi Calm Calm - N/A   Clear
2:53 AM 43.0 °F 30.9 °F 62% 30.09 in 10.0 mi Calm Calm - N/A   Clear
3:53 AM 41.0 °F 33.1 °F 73% 30.07 in 10.0 mi Calm Calm - N/A   Clear
5:53 AM 39.9 °F 33.1 °F 77% 30.06 in 10.0 mi Calm Calm - N/A   Clear
6:53 AM 39.0 °F 30.9 °F 73% 30.06 in 10.0 mi Calm Calm - N/A   Clear
7:53 AM 41.0 °F 32.0 °F 70% 30.08 in 10.0 mi Calm Calm - N/A   Clear
8:53 AM 46.0 °F 32.0 °F 58% 30.09 in 10.0 mi Calm Calm - N/A   Clear
9:53 AM 52.0 °F 30.0 °F 43% 30.08 in 10.0 mi Variable 3.5 mph - N/A   Clear
10:53 AM 54.0 °F 28.0 °F 37% 30.06 in 10.0 mi SE 6.9 mph - N/A   Clear
11:53 AM 55.0 °F 28.0 °F 35% 30.03 in 10.0 mi South 4.6 mph - N/A   Clear
12:53 PM 57.9 °F 26.1 °F 30% 29.98 in 10.0 mi Variable 6.9 mph - N/A   Clear
1:53 PM 59.0 °F 27.0 °F 29% 29.92 in 10.0 mi Variable 4.6 mph - N/A   Clear
2:53 PM 60.1 °F 27.0 °F 28% 29.88 in 10.0 mi Variable 4.6 mph - N/A   Clear
3:53 PM 60.1 °F 26.1 °F 27% 29.85 in 10.0 mi Variable 3.5 mph - N/A   Clear
4:53 PM 61.0 °F 24.1 °F 24% 29.83 in 10.0 mi SSW 5.8 mph - N/A   Clear
5:53 PM 61.0 °F 24.1 °F 24% 29.82 in 10.0 mi SSW 6.9 mph - N/A   Clear
6:53 PM 59.0 °F 26.1 °F 28% 29.83 in 10.0 mi Calm Calm - N/A   Clear
7:53 PM 55.9 °F 28.0 °F 34% 29.83 in 10.0 mi Calm Calm - N/A   Clear
8:53 PM 54.0 °F 28.9 °F 38% 29.84 in 10.0 mi Calm Calm - N/A   Clear
9:53 PM 52.0 °F 30.9 °F 45% 29.84 in 10.0 mi NNE 3.5 mph - N/A   Clear
10:53 PM 51.1 °F 32.0 °F 48% 29.83 in 10.0 mi Calm Calm - N/A   Mostly Cloudy
11:53 PM 50.0 °F 34.0 °F 54% 29.82 in 10.0 mi Calm Calm - N/A   Mostly Cloudy